Auburn, Auburn Municipal Airport, United States
Lat: 38.95N, Lon: 121.07W
Local Info
Past Weather Observations for Saturday, December 20, 2014

NOTE: This archive is for the closest National Weather Service station to Auburn, Auburn Municipal Airport. Information may differ from the station used for current weather conditions.

Click here for Long-term Archive

Time Weather Temperature Dewpoint Humidity Pressure Winds Precip Visibility
23:55
Overcast
52°F / 11°C 48°F / 9°C 88% 30.24 in
(1024 mb)
SE 8.1 mph
(SE 13 kph)
- 10SM
23:35
Overcast
52°F / 11°C 48°F / 9°C 88% 30.27 in
(1025 mb)
ESE 10.4 mph
(ESE 17 kph)
- 10SM
23:15
Overcast
52°F / 11°C 48°F / 9°C 88% 30.27 in
(1025 mb)
ESE 9.2 mph
(ESE 15 kph)
- 10SM
22:55
Overcast
50°F / 10°C 48°F / 9°C 94% 30.27 in
(1025 mb)
ESE 9.2 mph
(ESE 15 kph)
0.01 in
(0.25 mm)
10SM
22:35
Mostly Cloudy
50°F / 10°C 50°F / 10°C 100% 30.27 in
(1025 mb)
SE 6.9 mph
(SE 11 kph)
0.01 in
(0.25 mm)
2 1/2SM
22:15
Overcast
50°F / 10°C 50°F / 10°C 100% 30.27 in
(1025 mb)
ESE 6.9 mph
(ESE 11 kph)
- 1 3/4SM
21:55
Overcast
50°F / 10°C 50°F / 10°C 100% 30.27 in
(1025 mb)
SE 4.6 mph
(SE 7 kph)
0.01 in
(0.25 mm)
2SM
21:35
Overcast
50°F / 10°C 48°F / 9°C 94% 30.27 in
(1025 mb)
SE 3.5 mph
(SE 6 kph)
0.01 in
(0.25 mm)
3SM
21:15
Overcast
50°F / 10°C 48°F / 9°C 94% 30.27 in
(1025 mb)
SE 6.9 mph
(SE 11 kph)
0.01 in
(0.25 mm)
8SM
20:55
Overcast
52°F / 11°C 48°F / 9°C 88% 30.27 in
(1025 mb)
ESE 5.8 mph
(ESE 9 kph)
- 4SM
20:35
Overcast
52°F / 11°C 48°F / 9°C 88% 30.24 in
(1024 mb)
SE 5.8 mph
(SE 9 kph)
- 10SM
20:15
Overcast
52°F / 11°C 50°F / 10°C 94% 30.24 in
(1024 mb)
SE 6.9 mph
(SE 11 kph)
- 10SM
19:55
Overcast
52°F / 11°C 50°F / 10°C 94% 30.24 in
(1024 mb)
SE 5.8 mph
(SE 9 kph)
- 5SM
19:35
Mostly Cloudy
52°F / 11°C 50°F / 10°C 94% 30.24 in
(1024 mb)
SE 5.8 mph
(SE 9 kph)
- 5SM
19:15
Overcast
52°F / 11°C 52°F / 11°C 100% 30.24 in
(1024 mb)
ESE 6.9 mph
(ESE 11 kph)
- 3SM
18:55
Overcast
52°F / 11°C 52°F / 11°C 100% 30.24 in
(1024 mb)
ESE 6.9 mph
(ESE 11 kph)
- 5SM
18:35
Overcast
52°F / 11°C 52°F / 11°C 100% 30.24 in
(1024 mb)
SE 4.6 mph
(SE 7 kph)
- 10SM
18:15
Overcast
52°F / 11°C 52°F / 11°C 100% 30.24 in
(1024 mb)
SE 3.5 mph
(SE 6 kph)
- 7SM
17:55
Overcast
52°F / 11°C 52°F / 11°C 100% 30.24 in
(1024 mb)
Calm - 7SM
17:35
Overcast
52°F / 11°C 52°F / 11°C 100% 30.24 in
(1024 mb)
Calm - 10SM
17:15
Mostly Cloudy
52°F / 11°C 52°F / 11°C 100% 30.21 in
(1023 mb)
SSE 4.6 mph
(SSE 7 kph)
- 10SM
16:55
Overcast
52°F / 11°C 52°F / 11°C 100% 30.21 in
(1023 mb)
SE 4.6 mph
(SE 7 kph)
- 10SM
16:35
Overcast
52°F / 11°C 52°F / 11°C 100% 30.21 in
(1023 mb)
SE 4.6 mph
(SE 7 kph)
- 10SM
16:15
Overcast
52°F / 11°C 52°F / 11°C 100% 30.21 in
(1023 mb)
SSE 3.5 mph
(SSE 6 kph)
- 10SM
15:55
Overcast
52°F / 11°C 52°F / 11°C 100% 30.21 in
(1023 mb)
SE 3.5 mph
(SE 6 kph)
- 8SM
15:35
Overcast
52°F / 11°C 52°F / 11°C 100% 30.21 in
(1023 mb)
SE 5.8 mph
(SE 9 kph)
- 9SM
15:15
Overcast
52°F / 11°C 52°F / 11°C 100% 30.21 in
(1023 mb)
SE 5.8 mph
(SE 9 kph)
- 10SM
14:55
Mostly Cloudy
54°F / 12°C 50°F / 10°C 88% 30.18 in
(1022 mb)
SSE 8.1 mph
(SSE 13 kph)
- 10SM
14:35
Overcast
54°F / 12°C 52°F / 11°C 94% 30.18 in
(1022 mb)
SSE 6.9 mph
(SSE 11 kph)
- 10SM
14:15
Overcast
52°F / 11°C 52°F / 11°C 100% 30.21 in
(1023 mb)
SSE 6.9 mph
(SSE 11 kph)
- 8SM
13:55
Overcast
52°F / 11°C 50°F / 10°C 94% 30.21 in
(1023 mb)
SSE 5.8 mph
(SSE 9 kph)
- 5SM
13:35
Overcast
52°F / 11°C 50°F / 10°C 94% 30.21 in
(1023 mb)
S 6.9 mph
(S 11 kph)
- 6SM
13:15
Overcast
52°F / 11°C 50°F / 10°C 94% 30.21 in
(1023 mb)
SSE 4.6 mph
(SSE 7 kph)
- 10SM
12:55
Overcast
52°F / 11°C 50°F / 10°C 94% 30.18 in
(1022 mb)
SSE 5.8 mph
(SSE 9 kph)
- 10SM
12:35
Mostly Cloudy
52°F / 11°C 50°F / 10°C 94% 30.21 in
(1023 mb)
S 6.9 mph
(S 11 kph)
- 10SM
12:15
Overcast
52°F / 11°C 50°F / 10°C 94% 30.21 in
(1023 mb)
SSE 6.9 mph
(SSE 11 kph)
- 10SM
11:55
Overcast
52°F / 11°C 50°F / 10°C 94% 30.21 in
(1023 mb)
SSE 5.8 mph
(SSE 9 kph)
- 10SM
11:35
Overcast
52°F / 11°C 50°F / 10°C 94% 30.21 in
(1023 mb)
SSE 3.5 mph
(SSE 6 kph)
- 10SM
11:15
Overcast
50°F / 10°C 48°F / 9°C 94% 30.21 in
(1023 mb)
SE 6.9 mph
(SE 11 kph)
- 10SM
10:55
Overcast
50°F / 10°C 48°F / 9°C 94% 30.21 in
(1023 mb)
SE 6.9 mph
(SE 11 kph)
0.01 in
(0.25 mm)
10SM
10:35
Overcast
50°F / 10°C 48°F / 9°C 94% 30.24 in
(1024 mb)
SE 4.6 mph
(SE 7 kph)
0.01 in
(0.25 mm)
10SM
10:15
Overcast
50°F / 10°C 48°F / 9°C 94% 30.24 in
(1024 mb)
SE 4.6 mph
(SE 7 kph)
- 10SM
09:55
Overcast
50°F / 10°C 48°F / 9°C 94% 30.24 in
(1024 mb)
SSE 4.6 mph
(SSE 7 kph)
- 10SM
09:35
Overcast
50°F / 10°C 48°F / 9°C 94% 30.24 in
(1024 mb)
SSE 4.6 mph
(SSE 7 kph)
- 10SM
09:15
Overcast
50°F / 10°C 48°F / 9°C 94% 30.21 in
(1023 mb)
SSE 4.6 mph
(SSE 7 kph)
- 10SM
08:55
Overcast
50°F / 10°C 48°F / 9°C 94% 30.21 in
(1023 mb)
S 5.8 mph
(S 9 kph)
- 10SM
08:35
Overcast
50°F / 10°C 48°F / 9°C 94% 30.18 in
(1022 mb)
SSE 8.1 mph
(SSE 13 kph)
- 10SM
08:15
Overcast
48°F / 9°C 48°F / 9°C 100% 30.18 in
(1022 mb)
SE 5.8 mph
(SE 9 kph)
- 10SM
07:55
Overcast
48°F / 9°C 48°F / 9°C 100% 30.18 in
(1022 mb)
SE 5.8 mph
(SE 9 kph)
- 10SM
07:35
Overcast
48°F / 9°C 48°F / 9°C 100% 30.15 in
(1021 mb)
SE 6.9 mph
(SE 11 kph)
- 10SM
07:15
Overcast
48°F / 9°C 48°F / 9°C 100% 30.15 in
(1021 mb)
SE 6.9 mph
(SE 11 kph)
- 10SM
06:55
Overcast
48°F / 9°C 48°F / 9°C 100% 30.15 in
(1021 mb)
SE 6.9 mph
(SE 11 kph)
- 10SM
06:35
Mostly Cloudy
48°F / 9°C 48°F / 9°C 100% 30.15 in
(1021 mb)
SE 6.9 mph
(SE 11 kph)
- 10SM
06:15
Mostly Cloudy
48°F / 9°C 48°F / 9°C 100% 30.15 in
(1021 mb)
SE 5.8 mph
(SE 9 kph)
- 10SM
05:55
Overcast
48°F / 9°C 48°F / 9°C 100% 30.15 in
(1021 mb)
SE 3.5 mph
(SE 6 kph)
- 10SM
05:35
Overcast
48°F / 9°C 48°F / 9°C 100% 30.15 in
(1021 mb)
SSE 4.6 mph
(SSE 7 kph)
- 10SM
05:15
Mostly Cloudy
48°F / 9°C 48°F / 9°C 100% 30.15 in
(1021 mb)
SE 6.9 mph
(SE 11 kph)
- 10SM
04:55
Overcast
48°F / 9°C 48°F / 9°C 100% 30.15 in
(1021 mb)
SE 6.9 mph
(SE 11 kph)
- 10SM
04:35
Overcast
48°F / 9°C 48°F / 9°C 100% 30.15 in
(1021 mb)
SE 3.5 mph
(SE 6 kph)
- 10SM
04:15
Overcast
48°F / 9°C 48°F / 9°C 100% 30.15 in
(1021 mb)
SE 4.6 mph
(SE 7 kph)
- 10SM
03:55
Overcast
48°F / 9°C 48°F / 9°C 100% 30.15 in
(1021 mb)
SSE 4.6 mph
(SSE 7 kph)
- 10SM
03:35
Overcast
48°F / 9°C 48°F / 9°C 100% 30.15 in
(1021 mb)
S 5.8 mph
(S 9 kph)
- 10SM
03:15
Overcast
48°F / 9°C 48°F / 9°C 100% 30.15 in
(1021 mb)
S 4.6 mph
(S 7 kph)
- 3SM
02:55
Overcast
48°F / 9°C 48°F / 9°C 100% 30.15 in
(1021 mb)
S 6.9 mph
(S 11 kph)
0.02 in
(0.51 mm)
2SM
02:35
Overcast
48°F / 9°C 48°F / 9°C 100% 30.15 in
(1021 mb)
SSE 6.9 mph
(SSE 11 kph)
0.02 in
(0.51 mm)
2SM
02:15
Overcast
48°F / 9°C 48°F / 9°C 100% 30.15 in
(1021 mb)
S 6.9 mph
(S 11 kph)
0.02 in
(0.51 mm)
1 3/4SM
01:55
Overcast
48°F / 9°C 48°F / 9°C 100% 30.15 in
(1021 mb)
S 6.9 mph
(S 11 kph)
- 4SM
01:35
Overcast
48°F / 9°C 48°F / 9°C 100% 30.15 in
(1021 mb)
SSE 6.9 mph
(SSE 11 kph)
- 5SM
01:15
Overcast
48°F / 9°C 48°F / 9°C 100% 30.15 in
(1021 mb)
SE 8.1 mph
(SE 13 kph)
- 10SM
00:55
Overcast
48°F / 9°C 48°F / 9°C 100% 30.15 in
(1021 mb)
SSE 5.8 mph
(SSE 9 kph)
- 7SM
00:35
Overcast
48°F / 9°C 48°F / 9°C 100% 30.15 in
(1021 mb)
SSE 3.5 mph
(SSE 6 kph)
- 1 1/2SM
00:15
Overcast
48°F / 9°C 48°F / 9°C 100% 30.15 in
(1021 mb)
SSE 5.8 mph
(SSE 9 kph)
- 1 1/2SM
Time Weather Temperature Dewpoint Humidity Pressure Winds Precip Visibility


Weather for websites

WeatherForYou.com, LLC is not responsible for any damages or problems caused by this service. Current weather conditions are obtained from the closest station including government and personal stations which may have varying degrees of accuracy. Weather forecasts are derived from the NOAA NDFD. Like all things, this site belongs to Jesus Christ... He just trusts me to maintain it. If you have any questions or comments email webmaster@weatherforyou.com

Copyright © 2014, WeatherForYou.com LLC. All rights reserved.